M I D A S
Marine Information and Data Acquisition System
Tripno 1512 of the Zeeleeuw from 2008-06-27 07:43:53 to 2008-06-27 10:21:05
Back to CruiseResearch ActivitiesStationsMapUnderway DataData graphs

EquipmentUnitsComments
TimeDGPSUTC
LatitudeDGPSDM.mWGS84
LongitudeDGPSDM.mWGS84
SpeedMeteo Stationm/sRelative wind speed
DirectionMeteo StationdegRelative wind direction
TemperatureMeteo Stationdeg CelciusAir temperature
PressureMeteo StationPaAtmospheric pressure
HumidityMeteo Station%Relative humidity
Missing or incorrect values are displayed as -999
Metereological data collected by the RV Zeeleeuw from 2008-06-27 07:43:57 to 2008-06-27 10:23:23
                                                                                    Next 1000 lines
Time Latitude Longitude Speed Direction Temperature Pressure Humidity
2008-06-27 07:44:07 51°13.622 2°56.049 -999 -999 -999 -999 -999
2008-06-27 07:44:12 51°13.621 2°56.049 -999 -999 -999 -999 -999
2008-06-27 07:44:17 51°13.621 2°56.049 -999 -999 -999 -999 -999
2008-06-27 07:44:22 51°13.621 2°56.049 -999 -999 -999 -999 -999
2008-06-27 07:44:27 51°13.621 2°56.049 -999 -999 -999 -999 -999
2008-06-27 07:44:32 51°13.621 2°56.048 -999 -999 -999 -999 -999
2008-06-27 07:44:37 51°13.621 2°56.046 -999 -999 -999 -999 -999
2008-06-27 07:44:42 51°13.621 2°56.045 -999 -999 -999 -999 -999
2008-06-27 07:44:47 51°13.622 2°56.042 -999 -999 -999 -999 -999
2008-06-27 07:44:52 51°13.622 2°56.039 -999 -999 -999 -999 -999
2008-06-27 07:44:57 51°13.623 2°56.035 -999 -999 -999 -999 -999
2008-06-27 07:45:02 51°13.624 2°56.03 -999 -999 -999 -999 -999
2008-06-27 07:45:07 51°13.625 2°56.025 -999 -999 -999 -999 -999
2008-06-27 07:45:12 51°13.626 2°56.018 -999 -999 -999 -999 -999
2008-06-27 07:45:17 51°13.628 2°56.011 -999 -999 -999 -999 -999
2008-06-27 07:45:22 51°13.63 2°56.004 -999 -999 -999 -999 -999
2008-06-27 07:45:27 51°13.632 2°55.996 -999 -999 -999 -999 -999
2008-06-27 07:45:32 51°13.633 2°55.988 -999 -999 -999 -999 -999
2008-06-27 07:45:37 51°13.635 2°55.979 -999 -999 -999 -999 -999
2008-06-27 07:45:42 51°13.638 2°55.97 -999 -999 -999 -999 -999
2008-06-27 07:45:47 51°13.64 2°55.961 -999 -999 -999 -999 -999
2008-06-27 07:45:52 51°13.643 2°55.952 -999 -999 -999 -999 -999
2008-06-27 07:45:57 51°13.645 2°55.943 -999 -999 -999 -999 -999
2008-06-27 07:46:02 51°13.649 2°55.934 -999 -999 -999 -999 -999
2008-06-27 07:46:07 51°13.652 2°55.924 -999 -999 -999 -999 -999
2008-06-27 07:46:12 51°13.656 2°55.915 -999 -999 -999 -999 -999
2008-06-27 07:46:17 51°13.659 2°55.905 -999 -999 -999 -999 -999
2008-06-27 07:46:22 51°13.663 2°55.896 -999 -999 -999 -999 -999
2008-06-27 07:46:27 51°13.667 2°55.887 -999 -999 -999 -999 -999
2008-06-27 07:46:32 51°13.671 2°55.878 -999 -999 -999 -999 -999
2008-06-27 07:46:37 51°13.675 2°55.869 -999 -999 -999 -999 -999
2008-06-27 07:46:42 51°13.679 2°55.861 -999 -999 -999 -999 -999
2008-06-27 07:46:47 51°13.682 2°55.853 -999 -999 -999 -999 -999
2008-06-27 07:46:52 51°13.686 2°55.844 -999 -999 -999 -999 -999
2008-06-27 07:46:57 51°13.69 2°55.835 -999 -999 -999 -999 -999
2008-06-27 07:47:02 51°13.694 2°55.826 -999 -999 -999 -999 -999
2008-06-27 07:47:07 51°13.697 2°55.817 -999 -999 -999 -999 -999
2008-06-27 07:47:12 51°13.701 2°55.808 -999 -999 -999 -999 -999
2008-06-27 07:47:17 51°13.704 2°55.8 -999 -999 -999 -999 -999
2008-06-27 07:47:22 51°13.707 2°55.792 -999 -999 -999 -999 -999
2008-06-27 07:47:27 51°13.709 2°55.784 -999 -999 -999 -999 -999
2008-06-27 07:47:32 51°13.712 2°55.777 -999 -999 -999 -999 -999
2008-06-27 07:47:37 51°13.714 2°55.77 -999 -999 -999 -999 -999
2008-06-27 07:47:42 51°13.716 2°55.763 -999 -999 -999 -999 -999
2008-06-27 07:47:47 51°13.718 2°55.757 -999 -999 -999 -999 -999
2008-06-27 07:47:52 51°13.719 2°55.751 -999 -999 -999 -999 -999
2008-06-27 07:47:58 51°13.721 2°55.745 -999 -999 -999 -999 -999
2008-06-27 07:48:02 51°13.722 2°55.742 -999 -999 -999 -999 -999
2008-06-27 07:48:07 51°13.723 2°55.737 -999 -999 -999 -999 -999
2008-06-27 07:48:12 51°13.724 2°55.734 -999 -999 -999 -999 -999
2008-06-27 07:48:17 51°13.724 2°55.732 -999 -999 -999 -999 -999
2008-06-27 07:48:22 51°13.725 2°55.731 -999 -999 -999 -999 -999
2008-06-27 07:48:27 51°13.725 2°55.73 -999 -999 -999 -999 -999
2008-06-27 07:48:32 51°13.726 2°55.731 -999 -999 -999 -999 -999
2008-06-27 07:48:37 51°13.726 2°55.733 -999 -999 -999 -999 -999
2008-06-27 07:48:42 51°13.727 2°55.735 -999 -999 -999 -999 -999
2008-06-27 07:48:47 51°13.728 2°55.737 -999 -999 -999 -999 -999
2008-06-27 07:48:52 51°13.729 2°55.739 -999 -999 -999 -999 -999
2008-06-27 07:48:57 51°13.73 2°55.741 -999 -999 -999 -999 -999
2008-06-27 07:49:02 51°13.73 2°55.741 -999 -999 -999 -999 -999
2008-06-27 07:49:07 51°13.73 2°55.741 -999 -999 -999 -999 -999
2008-06-27 07:49:12 51°13.73 2°55.74 -999 -999 -999 -999 -999
2008-06-27 07:49:17 51°13.729 2°55.739 -999 -999 -999 -999 -999
2008-06-27 07:49:22 51°13.728 2°55.737 -999 -999 -999 -999 -999
2008-06-27 07:49:27 51°13.726 2°55.734 -999 -999 -999 -999 -999
2008-06-27 07:49:32 51°13.724 2°55.731 -999 -999 -999 -999 -999
2008-06-27 07:49:37 51°13.723 2°55.729 -999 -999 -999 -999 -999
2008-06-27 07:49:42 51°13.721 2°55.726 -999 -999 -999 -999 -999
2008-06-27 07:49:47 51°13.72 2°55.724 -999 -999 -999 -999 -999
2008-06-27 07:49:52 51°13.719 2°55.722 -999 -999 -999 -999 -999
2008-06-27 07:49:57 51°13.719 2°55.721 -999 -999 -999 -999 -999
2008-06-27 07:50:02 51°13.719 2°55.721 -999 -999 -999 -999 -999
2008-06-27 07:50:07 51°13.72 2°55.721 -999 -999 -999 -999 -999
2008-06-27 07:50:12 51°13.721 2°55.722 -999 -999 -999 -999 -999
2008-06-27 07:50:17 51°13.724 2°55.723 -999 -999 -999 -999 -999
2008-06-27 07:50:22 51°13.727 2°55.723 -999 -999 -999 -999 -999
2008-06-27 07:50:27 51°13.731 2°55.724 -999 -999 -999 -999 -999
2008-06-27 07:50:32 51°13.736 2°55.723 -999 -999 -999 -999 -999
2008-06-27 07:50:37 51°13.741 2°55.721 -999 -999 -999 -999 -999
2008-06-27 07:50:42 51°13.746 2°55.718 -999 -999 -999 -999 -999
2008-06-27 07:50:47 51°13.751 2°55.714 -999 -999 -999 -999 -999
2008-06-27 07:50:52 51°13.757 2°55.709 -999 -999 -999 -999 -999
2008-06-27 07:50:57 51°13.763 2°55.703 -999 -999 -999 -999 -999
2008-06-27 07:51:02 51°13.77 2°55.697 -999 -999 -999 -999 -999
2008-06-27 07:51:07 51°13.778 2°55.69 -999 -999 -999 -999 -999
2008-06-27 07:51:12 51°13.786 2°55.683 -999 -999 -999 -999 -999
2008-06-27 07:51:17 51°13.794 2°55.674 -999 -999 -999 -999 -999
2008-06-27 07:51:22 51°13.803 2°55.666 -999 -999 -999 -999 -999
2008-06-27 07:51:27 51°13.812 2°55.657 -999 -999 -999 -999 -999
2008-06-27 07:51:32 51°13.821 2°55.648 -999 -999 -999 -999 -999
2008-06-27 07:51:37 51°13.831 2°55.639 -999 -999 -999 -999 -999
2008-06-27 07:51:42 51°13.841 2°55.631 -999 -999 -999 -999 -999
2008-06-27 07:51:47 51°13.851 2°55.623 -999 -999 -999 -999 -999
2008-06-27 07:51:52 51°13.862 2°55.616 -999 -999 -999 -999 -999
2008-06-27 07:51:57 51°13.872 2°55.608 -999 -999 -999 -999 -999
2008-06-27 07:52:02 51°13.881 2°55.602 -999 -999 -999 -999 -999
2008-06-27 07:52:07 51°13.891 2°55.595 -999 -999 -999 -999 -999
2008-06-27 07:52:12 51°13.9 2°55.589 -999 -999 -999 -999 -999
2008-06-27 07:52:17 51°13.91 2°55.582 -999 -999 -999 -999 -999
2008-06-27 07:52:22 51°13.919 2°55.576 -999 -999 -999 -999 -999
2008-06-27 07:52:27 51°13.928 2°55.57 -999 -999 -999 -999 -999
2008-06-27 07:52:32 51°13.937 2°55.565 -999 -999 -999 -999 -999
2008-06-27 07:52:37 51°13.946 2°55.559 -999 -999 -999 -999 -999
2008-06-27 07:52:42 51°13.955 2°55.553 -999 -999 -999 -999 -999
2008-06-27 07:52:47 51°13.964 2°55.548 -999 -999 -999 -999 -999
2008-06-27 07:52:52 51°13.972 2°55.542 -999 -999 -999 -999 -999
2008-06-27 07:52:57 51°13.981 2°55.537 -999 -999 -999 -999 -999
2008-06-27 07:53:02 51°13.989 2°55.531 -999 -999 -999 -999 -999
2008-06-27 07:53:07 51°13.998 2°55.526 -999 -999 -999 -999 -999
2008-06-27 07:53:12 51°14.006 2°55.52 -999 -999 -999 -999 -999
2008-06-27 07:53:17 51°14.015 2°55.515 -999 -999 -999 -999 -999
2008-06-27 07:53:22 51°14.023 2°55.51 -999 -999 -999 -999 -999
2008-06-27 07:53:27 51°14.032 2°55.504 -999 -999 -999 -999 -999
2008-06-27 07:53:32 51°14.04 2°55.499 -999 -999 -999 -999 -999
2008-06-27 07:53:37 51°14.048 2°55.494 -999 -999 -999 -999 -999
2008-06-27 07:53:42 51°14.057 2°55.488 -999 -999 -999 -999 -999
2008-06-27 07:53:47 51°14.065 2°55.482 -999 -999 -999 -999 -999
2008-06-27 07:53:52 51°14.073 2°55.477 -999 -999 -999 -999 -999
2008-06-27 07:53:57 51°14.081 2°55.471 -999 -999 -999 -999 -999
2008-06-27 07:54:02 51°14.09 2°55.466 -999 -999 -999 -999 -999
2008-06-27 07:54:07 51°14.098 2°55.46 -999 -999 -999 -999 -999
2008-06-27 07:54:12 51°14.106 2°55.454 -999 -999 -999 -999 -999
2008-06-27 07:54:17 51°14.114 2°55.447 -999 -999 -999 -999 -999
2008-06-27 07:54:22 51°14.122 2°55.441 -999 -999 -999 -999 -999
2008-06-27 07:54:27 51°14.129 2°55.434 -999 -999 -999 -999 -999
2008-06-27 07:54:32 51°14.137 2°55.426 -999 -999 -999 -999 -999
2008-06-27 07:54:37 51°14.144 2°55.419 -999 -999 -999 -999 -999
2008-06-27 07:54:42 51°14.152 2°55.411 -999 -999 -999 -999 -999
2008-06-27 07:54:47 51°14.16 2°55.402 -999 -999 -999 -999 -999
2008-06-27 07:54:52 51°14.168 2°55.393 -999 -999 -999 -999 -999
2008-06-27 07:54:57 51°14.176 2°55.383 -999 -999 -999 -999 -999
2008-06-27 07:55:02 51°14.184 2°55.373 -999 -999 -999 -999 -999
2008-06-27 07:55:07 51°14.192 2°55.362 -999 -999 -999 -999 -999
2008-06-27 07:55:12 51°14.201 2°55.351 -999 -999 -999 -999 -999
2008-06-27 07:55:17 51°14.209 2°55.34 -999 -999 -999 -999 -999
2008-06-27 07:55:22 51°14.217 2°55.328 -999 -999 -999 -999 -999
2008-06-27 07:55:27 51°14.225 2°55.315 -999 -999 -999 -999 -999
2008-06-27 07:55:32 51°14.233 2°55.302 -999 -999 -999 -999 -999
2008-06-27 07:55:37 51°14.241 2°55.288 -999 -999 -999 -999 -999
2008-06-27 07:55:42 51°14.25 2°55.274 -999 -999 -999 -999 -999
2008-06-27 07:55:47 51°14.258 2°55.26 -999 -999 -999 -999 -999
2008-06-27 07:55:52 51°14.266 2°55.245 -999 -999 -999 -999 -999
2008-06-27 07:55:57 51°14.274 2°55.23 -999 -999 -999 -999 -999
2008-06-27 07:56:02 51°14.282 2°55.215 -999 -999 -999 -999 -999
2008-06-27 07:56:07 51°14.29 2°55.2 -999 -999 -999 -999 -999
2008-06-27 07:56:12 51°14.298 2°55.185 -999 -999 -999 -999 -999
2008-06-27 07:56:17 51°14.307 2°55.17 -999 -999 -999 -999 -999
2008-06-27 07:56:22 51°14.315 2°55.154 -999 -999 -999 -999 -999
2008-06-27 07:56:27 51°14.324 2°55.137 -999 -999 -999 -999 -999
2008-06-27 07:56:32 51°14.333 2°55.12 -999 -999 -999 -999 -999
2008-06-27 07:56:37 51°14.342 2°55.103 -999 -999 -999 -999 -999
2008-06-27 07:56:42 51°14.352 2°55.086 -999 -999 -999 -999 -999
2008-06-27 07:56:47 51°14.362 2°55.067 -999 -999 -999 -999 -999
2008-06-27 07:56:52 51°14.373 2°55.05 -999 -999 -999 -999 -999
2008-06-27 07:56:57 51°14.383 2°55.031 -999 -999 -999 -999 -999
2008-06-27 07:57:02 51°14.395 2°55.014 -999 -999 -999 -999 -999
2008-06-27 07:57:07 51°14.407 2°54.997 -999 -999 -999 -999 -999
2008-06-27 07:57:12 51°14.42 2°54.981 -999 -999 -999 -999 -999
2008-06-27 07:57:17 51°14.432 2°54.966 -999 -999 -999 -999 -999
2008-06-27 07:57:23 51°14.448 2°54.949 -999 -999 -999 -999 -999
2008-06-27 07:57:27 51°14.459 2°54.938 -999 -999 -999 -999 -999
2008-06-27 07:57:32 51°14.473 2°54.924 -999 -999 -999 -999 -999
2008-06-27 07:57:37 51°14.486 2°54.91 -999 -999 -999 -999 -999
2008-06-27 07:57:42 51°14.5 2°54.896 -999 -999 -999 -999 -999
2008-06-27 07:57:47 51°14.514 2°54.883 -999 -999 -999 -999 -999
2008-06-27 07:57:52 51°14.528 2°54.87 -999 -999 -999 -999 -999
2008-06-27 07:57:57 51°14.542 2°54.857 -999 -999 -999 -999 -999
2008-06-27 07:58:02 51°14.555 2°54.843 -999 -999 -999 -999 -999
2008-06-27 07:58:07 51°14.569 2°54.829 -999 -999 -999 -999 -999
2008-06-27 07:58:12 51°14.583 2°54.815 -999 -999 -999 -999 -999
2008-06-27 07:58:17 51°14.597 2°54.802 -999 -999 -999 -999 -999
2008-06-27 07:58:22 51°14.611 2°54.788 -999 -999 -999 -999 -999
2008-06-27 07:58:27 51°14.625 2°54.774 -999 -999 -999 -999 -999
2008-06-27 07:58:32 51°14.639 2°54.761 -999 -999 -999 -999 -999
2008-06-27 07:58:37 51°14.653 2°54.747 -999 -999 -999 -999 -999
2008-06-27 07:58:42 51°14.667 2°54.734 -999 -999 -999 -999 -999
2008-06-27 07:58:47 51°14.68 2°54.72 -999 -999 -999 -999 -999
2008-06-27 07:58:52 51°14.694 2°54.706 -999 -999 -999 -999 -999
2008-06-27 07:58:57 51°14.708 2°54.692 -999 -999 -999 -999 -999
2008-06-27 07:59:02 51°14.722 2°54.678 -999 -999 -999 -999 -999
2008-06-27 07:59:07 51°14.735 2°54.664 -999 -999 -999 -999 -999
2008-06-27 07:59:12 51°14.749 2°54.65 -999 -999 -999 -999 -999
2008-06-27 07:59:17 51°14.763 2°54.636 -999 -999 -999 -999 -999
2008-06-27 07:59:22 51°14.777 2°54.621 -999 -999 -999 -999 -999
2008-06-27 07:59:27 51°14.791 2°54.607 -999 -999 -999 -999 -999
2008-06-27 07:59:32 51°14.805 2°54.594 -999 -999 -999 -999 -999
2008-06-27 07:59:37 51°14.819 2°54.58 -999 -999 -999 -999 -999
2008-06-27 07:59:42 51°14.832 2°54.566 -999 -999 -999 -999 -999
2008-06-27 07:59:47 51°14.846 2°54.552 -999 -999 -999 -999 -999
2008-06-27 07:59:52 51°14.86 2°54.539 -999 -999 -999 -999 -999
2008-06-27 07:59:57 51°14.874 2°54.525 -999 -999 -999 -999 -999
2008-06-27 08:00:02 51°14.888 2°54.512 -999 -999 -999 -999 -999
2008-06-27 08:00:07 51°14.902 2°54.498 -999 -999 -999 -999 -999
2008-06-27 08:00:12 51°14.916 2°54.486 -999 -999 -999 -999 -999
2008-06-27 08:00:17 51°14.931 2°54.474 -999 -999 -999 -999 -999
2008-06-27 08:00:22 51°14.945 2°54.461 -999 -999 -999 -999 -999
2008-06-27 08:00:27 51°14.959 2°54.449 -999 -999 -999 -999 -999
2008-06-27 08:00:32 51°14.974 2°54.436 -999 -999 -999 -999 -999
2008-06-27 08:00:37 51°14.988 2°54.424 -999 -999 -999 -999 -999
2008-06-27 08:00:42 51°15.002 2°54.411 -999 -999 -999 -999 -999
2008-06-27 08:00:47 51°15.016 2°54.398 -999 -999 -999 -999 -999
2008-06-27 08:00:52 51°15.031 2°54.386 -999 -999 -999 -999 -999
2008-06-27 08:00:57 51°15.045 2°54.373 -999 -999 -999 -999 -999
2008-06-27 08:01:02 51°15.059 2°54.361 -999 -999 -999 -999 -999
2008-06-27 08:01:07 51°15.073 2°54.348 -999 -999 -999 -999 -999
2008-06-27 08:01:12 51°15.087 2°54.335 -999 -999 -999 -999 -999
2008-06-27 08:01:17 51°15.101 2°54.322 -999 -999 -999 -999 -999
2008-06-27 08:01:22 51°15.115 2°54.309 -999 -999 -999 -999 -999
2008-06-27 08:01:27 51°15.129 2°54.297 -999 -999 -999 -999 -999
2008-06-27 08:01:32 51°15.144 2°54.284 -999 -999 -999 -999 -999
2008-06-27 08:01:37 51°15.158 2°54.271 -999 -999 -999 -999 -999
2008-06-27 08:01:42 51°15.172 2°54.258 -999 -999 -999 -999 -999
2008-06-27 08:01:47 51°15.186 2°54.246 -999 -999 -999 -999 -999
2008-06-27 08:01:52 51°15.2 2°54.232 -999 -999 -999 -999 -999
2008-06-27 08:01:57 51°15.215 2°54.22 -999 -999 -999 -999 -999
2008-06-27 08:02:02 51°15.229 2°54.208 -999 -999 -999 -999 -999
2008-06-27 08:02:07 51°15.243 2°54.195 -999 -999 -999 -999 -999
2008-06-27 08:02:12 51°15.257 2°54.182 -999 -999 -999 -999 -999
2008-06-27 08:02:17 51°15.271 2°54.17 -999 -999 -999 -999 -999
2008-06-27 08:02:22 51°15.286 2°54.157 -999 -999 -999 -999 -999
2008-06-27 08:02:27 51°15.3 2°54.144 -999 -999 -999 -999 -999
2008-06-27 08:02:32 51°15.314 2°54.131 -999 -999 -999 -999 -999
2008-06-27 08:02:37 51°15.328 2°54.118 -999 -999 -999 -999 -999
2008-06-27 08:02:42 51°15.343 2°54.105 -999 -999 -999 -999 -999
2008-06-27 08:02:47 51°15.357 2°54.092 -999 -999 -999 -999 -999
2008-06-27 08:02:52 51°15.371 2°54.079 -999 -999 -999 -999 -999
2008-06-27 08:02:57 51°15.385 2°54.066 -999 -999 -999 -999 -999
2008-06-27 08:03:02 51°15.399 2°54.053 -999 -999 -999 -999 -999
2008-06-27 08:03:07 51°15.413 2°54.039 -999 -999 -999 -999 -999
2008-06-27 08:03:12 51°15.428 2°54.026 -999 -999 -999 -999 -999
2008-06-27 08:03:17 51°15.441 2°54.012 -999 -999 -999 -999 -999
2008-06-27 08:03:22 51°15.456 2°54 -999 -999 -999 -999 -999
2008-06-27 08:03:27 51°15.47 2°53.987 -999 -999 -999 -999 -999
2008-06-27 08:03:32 51°15.484 2°53.973 -999 -999 -999 -999 -999
2008-06-27 08:03:37 51°15.499 2°53.96 -999 -999 -999 -999 -999
2008-06-27 08:03:42 51°15.513 2°53.947 -999 -999 -999 -999 -999
2008-06-27 08:03:47 51°15.527 2°53.934 -999 -999 -999 -999 -999
2008-06-27 08:03:52 51°15.541 2°53.921 -999 -999 -999 -999 -999
2008-06-27 08:03:57 51°15.555 2°53.907 -999 -999 -999 -999 -999
2008-06-27 08:04:02 51°15.57 2°53.894 -999 -999 -999 -999 -999
2008-06-27 08:04:07 51°15.584 2°53.88 -999 -999 -999 -999 -999
2008-06-27 08:04:12 51°15.598 2°53.867 -999 -999 -999 -999 -999
2008-06-27 08:04:17 51°15.612 2°53.854 -999 -999 -999 -999 -999
2008-06-27 08:04:22 51°15.627 2°53.841 -999 -999 -999 -999 -999
2008-06-27 08:04:27 51°15.641 2°53.829 -999 -999 -999 -999 -999
2008-06-27 08:04:32 51°15.655 2°53.816 -999 -999 -999 -999 -999
2008-06-27 08:04:37 51°15.67 2°53.803 -999 -999 -999 -999 -999
2008-06-27 08:04:43 51°15.687 2°53.788 -999 -999 -999 -999 -999
2008-06-27 08:04:47 51°15.698 2°53.777 -999 -999 -999 -999 -999
2008-06-27 08:04:52 51°15.713 2°53.764 -999 -999 -999 -999 -999
2008-06-27 08:04:57 51°15.727 2°53.751 -999 -999 -999 -999 -999
2008-06-27 08:05:02 51°15.741 2°53.737 -999 -999 -999 -999 -999
2008-06-27 08:05:07 51°15.756 2°53.724 -999 -999 -999 -999 -999
2008-06-27 08:05:12 51°15.77 2°53.711 -999 -999 -999 -999 -999
2008-06-27 08:05:17 51°15.784 2°53.698 -999 -999 -999 -999 -999
2008-06-27 08:05:22 51°15.798 2°53.685 -999 -999 -999 -999 -999
2008-06-27 08:05:27 51°15.812 2°53.671 -999 -999 -999 -999 -999
2008-06-27 08:05:32 51°15.826 2°53.658 -999 -999 -999 -999 -999
2008-06-27 08:05:37 51°15.84 2°53.645 -999 -999 -999 -999 -999
2008-06-27 08:05:42 51°15.855 2°53.631 -999 -999 -999 -999 -999
2008-06-27 08:05:47 51°15.869 2°53.618 -999 -999 -999 -999 -999
2008-06-27 08:05:52 51°15.883 2°53.606 -999 -999 -999 -999 -999
2008-06-27 08:05:57 51°15.897 2°53.592 -999 -999 -999 -999 -999
2008-06-27 08:06:02 51°15.912 2°53.579 -999 -999 -999 -999 -999
2008-06-27 08:06:07 51°15.926 2°53.566 -999 -999 -999 -999 -999
2008-06-27 08:06:12 51°15.941 2°53.554 -999 -999 -999 -999 -999
2008-06-27 08:06:17 51°15.955 2°53.54 -999 -999 -999 -999 -999
2008-06-27 08:06:22 51°15.969 2°53.528 -999 -999 -999 -999 -999
2008-06-27 08:06:27 51°15.984 2°53.515 -999 -999 -999 -999 -999
2008-06-27 08:06:32 51°15.998 2°53.502 -999 -999 -999 -999 -999
2008-06-27 08:06:37 51°16.013 2°53.489 -999 -999 -999 -999 -999
2008-06-27 08:06:42 51°16.027 2°53.477 -999 -999 -999 -999 -999
2008-06-27 08:06:47 51°16.042 2°53.464 -999 -999 -999 -999 -999
2008-06-27 08:06:52 51°16.057 2°53.452 -999 -999 -999 -999 -999
2008-06-27 08:06:57 51°16.071 2°53.439 -999 -999 -999 -999 -999
2008-06-27 08:07:02 51°16.086 2°53.427 -999 -999 -999 -999 -999
2008-06-27 08:07:07 51°16.1 2°53.414 -999 -999 -999 -999 -999
2008-06-27 08:07:12 51°16.114 2°53.401 -999 -999 -999 -999 -999
2008-06-27 08:07:17 51°16.129 2°53.388 -999 -999 -999 -999 -999
2008-06-27 08:07:22 51°16.143 2°53.376 -999 -999 -999 -999 -999
2008-06-27 08:07:27 51°16.157 2°53.364 -999 -999 -999 -999 -999
2008-06-27 08:07:32 51°16.171 2°53.35 -999 -999 -999 -999 -999
2008-06-27 08:07:37 51°16.185 2°53.337 -999 -999 -999 -999 -999
2008-06-27 08:07:42 51°16.199 2°53.324 -999 -999 -999 -999 -999
2008-06-27 08:07:47 51°16.214 2°53.311 -999 -999 -999 -999 -999
2008-06-27 08:07:52 51°16.227 2°53.298 -999 -999 -999 -999 -999
2008-06-27 08:07:57 51°16.242 2°53.285 -999 -999 -999 -999 -999
2008-06-27 08:08:02 51°16.256 2°53.271 -999 -999 -999 -999 -999
2008-06-27 08:08:07 51°16.27 2°53.258 -999 -999 -999 -999 -999
2008-06-27 08:08:12 51°16.284 2°53.245 -999 -999 -999 -999 -999
2008-06-27 08:08:17 51°16.298 2°53.232 -999 -999 -999 -999 -999
2008-06-27 08:08:22 51°16.312 2°53.219 -999 -999 -999 -999 -999
2008-06-27 08:08:27 51°16.326 2°53.206 -999 -999 -999 -999 -999
2008-06-27 08:08:32 51°16.341 2°53.193 -999 -999 -999 -999 -999
2008-06-27 08:08:37 51°16.354 2°53.181 -999 -999 -999 -999 -999
2008-06-27 08:08:42 51°16.368 2°53.169 -999 -999 -999 -999 -999
2008-06-27 08:08:47 51°16.383 2°53.157 -999 -999 -999 -999 -999
2008-06-27 08:08:52 51°16.397 2°53.144 -999 -999 -999 -999 -999
2008-06-27 08:08:57 51°16.411 2°53.132 -999 -999 -999 -999 -999
2008-06-27 08:09:02 51°16.426 2°53.119 -999 -999 -999 -999 -999
2008-06-27 08:09:07 51°16.44 2°53.107 -999 -999 -999 -999 -999
2008-06-27 08:09:12 51°16.454 2°53.094 -999 -999 -999 -999 -999
2008-06-27 08:09:17 51°16.468 2°53.08 -999 -999 -999 -999 -999
2008-06-27 08:09:22 51°16.482 2°53.067 -999 -999 -999 -999 -999
2008-06-27 08:09:27 51°16.497 2°53.054 -999 -999 -999 -999 -999
2008-06-27 08:09:32 51°16.511 2°53.04 -999 -999 -999 -999 -999
2008-06-27 08:09:37 51°16.525 2°53.027 -999 -999 -999 -999 -999
2008-06-27 08:09:42 51°16.539 2°53.014 -999 -999 -999 -999 -999
2008-06-27 08:09:47 51°16.553 2°53.001 -999 -999 -999 -999 -999
2008-06-27 08:09:52 51°16.568 2°52.988 -999 -999 -999 -999 -999
2008-06-27 08:09:57 51°16.582 2°52.975 -999 -999 -999 -999 -999
2008-06-27 08:10:02 51°16.597 2°52.963 -999 -999 -999 -999 -999
2008-06-27 08:10:07 51°16.611 2°52.951 -999 -999 -999 -999 -999
2008-06-27 08:10:12 51°16.626 2°52.94 -999 -999 -999 -999 -999
2008-06-27 08:10:17 51°16.641 2°52.928 -999 -999 -999 -999 -999
2008-06-27 08:10:22 51°16.656 2°52.917 -999 -999 -999 -999 -999
2008-06-27 08:10:27 51°16.672 2°52.906 -999 -999 -999 -999 -999
2008-06-27 08:10:32 51°16.687 2°52.895 -999 -999 -999 -999 -999
2008-06-27 08:10:37 51°16.702 2°52.884 -999 -999 -999 -999 -999
2008-06-27 08:10:42 51°16.717 2°52.873 -999 -999 -999 -999 -999
2008-06-27 08:10:47 51°16.732 2°52.862 -999 -999 -999 -999 -999
2008-06-27 08:10:52 51°16.747 2°52.851 -999 -999 -999 -999 -999
2008-06-27 08:10:57 51°16.763 2°52.841 -999 -999 -999 -999 -999
2008-06-27 08:11:02 51°16.778 2°52.831 -999 -999 -999 -999 -999
2008-06-27 08:11:07 51°16.793 2°52.821 -999 -999 -999 -999 -999
2008-06-27 08:11:12 51°16.808 2°52.81 -999 -999 -999 -999 -999
2008-06-27 08:11:17 51°16.823 2°52.8 -999 -999 -999 -999 -999
2008-06-27 08:11:23 51°16.841 2°52.787 -999 -999 -999 -999 -999
2008-06-27 08:11:27 51°16.854 2°52.779 -999 -999 -999 -999 -999
2008-06-27 08:11:32 51°16.869 2°52.768 -999 -999 -999 -999 -999
2008-06-27 08:11:37 51°16.884 2°52.758 -999 -999 -999 -999 -999
2008-06-27 08:11:42 51°16.899 2°52.747 -999 -999 -999 -999 -999
2008-06-27 08:11:47 51°16.914 2°52.736 -999 -999 -999 -999 -999
2008-06-27 08:11:52 51°16.929 2°52.725 -999 -999 -999 -999 -999
2008-06-27 08:11:57 51°16.944 2°52.715 -999 -999 -999 -999 -999
2008-06-27 08:12:02 51°16.96 2°52.704 -999 -999 -999 -999 -999
2008-06-27 08:12:07 51°16.975 2°52.695 -999 -999 -999 -999 -999
2008-06-27 08:12:12 51°16.991 2°52.685 -999 -999 -999 -999 -999
2008-06-27 08:12:17 51°17.006 2°52.674 -999 -999 -999 -999 -999
2008-06-27 08:12:22 51°17.021 2°52.665 -999 -999 -999 -999 -999
2008-06-27 08:12:27 51°17.037 2°52.655 -999 -999 -999 -999 -999
2008-06-27 08:12:32 51°17.052 2°52.646 -999 -999 -999 -999 -999
2008-06-27 08:12:37 51°17.067 2°52.635 -999 -999 -999 -999 -999
2008-06-27 08:12:42 51°17.083 2°52.625 -999 -999 -999 -999 -999
2008-06-27 08:12:47 51°17.098 2°52.615 -999 -999 -999 -999 -999
2008-06-27 08:12:52 51°17.114 2°52.606 -999 -999 -999 -999 -999
2008-06-27 08:12:57 51°17.129 2°52.597 -999 -999 -999 -999 -999
2008-06-27 08:13:02 51°17.144 2°52.587 -999 -999 -999 -999 -999
2008-06-27 08:13:07 51°17.16 2°52.579 -999 -999 -999 -999 -999
2008-06-27 08:13:12 51°17.176 2°52.57 -999 -999 -999 -999 -999
2008-06-27 08:13:17 51°17.192 2°52.562 -999 -999 -999 -999 -999
2008-06-27 08:13:23 51°17.211 2°52.551 -999 -999 -999 -999 -999
2008-06-27 08:13:27 51°17.224 2°52.546 -999 -999 -999 -999 -999
2008-06-27 08:13:32 51°17.24 2°52.538 -999 -999 -999 -999 -999
2008-06-27 08:13:37 51°17.256 2°52.533 -999 -999 -999 -999 -999
2008-06-27 08:13:42 51°17.273 2°52.527 -999 -999 -999 -999 -999
2008-06-27 08:13:47 51°17.289 2°52.524 -999 -999 -999 -999 -999
2008-06-27 08:13:52 51°17.306 2°52.52 -999 -999 -999 -999 -999
2008-06-27 08:13:57 51°17.322 2°52.518 -999 -999 -999 -999 -999
2008-06-27 08:14:02 51°17.339 2°52.517 -999 -999 -999 -999 -999
2008-06-27 08:14:07 51°17.357 2°52.516 -999 -999 -999 -999 -999
2008-06-27 08:14:12 51°17.374 2°52.517 -999 -999 -999 -999 -999
2008-06-27 08:14:17 51°17.391 2°52.518 -999 -999 -999 -999 -999
2008-06-27 08:14:22 51°17.408 2°52.52 -999 -999 -999 -999 -999
2008-06-27 08:14:27 51°17.425 2°52.521 -999 -999 -999 -999 -999
2008-06-27 08:14:32 51°17.442 2°52.526 -999 -999 -999 -999 -999
2008-06-27 08:14:37 51°17.459 2°52.525 -999 -999 -999 -999 -999
2008-06-27 08:14:42 51°17.476 2°52.53 -999 -999 -999 -999 -999
2008-06-27 08:14:47 51°17.493 2°52.53 -999 -999 -999 -999 -999
2008-06-27 08:14:52 51°17.51 2°52.532 -999 -999 -999 -999 -999
2008-06-27 08:14:57 51°17.526 2°52.535 -999 -999 -999 -999 -999
2008-06-27 08:15:02 51°17.544 2°52.535 -999 -999 -999 -999 -999
2008-06-27 08:15:07 51°17.561 2°52.536 -999 -999 -999 -999 -999
2008-06-27 08:15:12 51°17.578 2°52.536 -999 -999 -999 -999 -999
2008-06-27 08:15:17 51°17.595 2°52.539 -999 -999 -999 -999 -999
2008-06-27 08:15:22 51°17.612 2°52.537 -999 -999 -999 -999 -999
2008-06-27 08:15:27 51°17.629 2°52.539 -999 -999 -999 -999 -999
2008-06-27 08:15:32 51°17.646 2°52.539 -999 -999 -999 -999 -999
2008-06-27 08:15:37 51°17.663 2°52.539 -999 -999 -999 -999 -999
2008-06-27 08:15:42 51°17.68 2°52.541 -999 -999 -999 -999 -999
2008-06-27 08:15:47 51°17.697 2°52.539 -999 -999 -999 -999 -999
2008-06-27 08:15:52 51°17.715 2°52.542 -999 -999 -999 -999 -999
2008-06-27 08:15:57 51°17.732 2°52.541 -999 -999 -999 -999 -999
2008-06-27 08:16:02 51°17.749 2°52.544 -999 -999 -999 -999 -999
2008-06-27 08:16:07 51°17.766 2°52.542 -999 -999 -999 -999 -999
2008-06-27 08:16:12 51°17.783 2°52.544 -999 -999 -999 -999 -999
2008-06-27 08:16:17 51°17.8 2°52.543 -999 -999 -999 -999 -999
2008-06-27 08:16:22 51°17.817 2°52.544 -999 -999 -999 -999 -999
2008-06-27 08:16:27 51°17.834 2°52.545 -999 -999 -999 -999 -999
2008-06-27 08:16:32 51°17.851 2°52.544 -999 -999 -999 -999 -999
2008-06-27 08:16:37 51°17.869 2°52.544 -999 -999 -999 -999 -999
2008-06-27 08:16:42 51°17.886 2°52.542 -999 -999 -999 -999 -999
2008-06-27 08:16:47 51°17.902 2°52.542 -999 -999 -999 -999 -999
2008-06-27 08:16:52 51°17.919 2°52.54 -999 -999 -999 -999 -999
2008-06-27 08:16:57 51°17.936 2°52.539 -999 -999 -999 -999 -999
2008-06-27 08:17:02 51°17.954 2°52.536 -999 -999 -999 -999 -999
2008-06-27 08:17:07 51°17.971 2°52.535 -999 -999 -999 -999 -999
2008-06-27 08:17:12 51°17.988 2°52.533 -999 -999 -999 -999 -999
2008-06-27 08:17:17 51°18.005 2°52.532 -999 -999 -999 -999 -999
2008-06-27 08:17:22 51°18.023 2°52.529 -999 -999 -999 -999 -999
2008-06-27 08:17:27 51°18.04 2°52.529 -999 -999 -999 -999 -999
2008-06-27 08:17:32 51°18.057 2°52.526 -999 -999 -999 -999 -999
2008-06-27 08:17:37 51°18.074 2°52.526 -999 -999 -999 -999 -999
2008-06-27 08:17:42 51°18.092 2°52.523 -999 -999 -999 -999 -999
2008-06-27 08:17:47 51°18.109 2°52.523 -999 -999 -999 -999 -999
2008-06-27 08:17:52 51°18.126 2°52.519 -999 -999 -999 -999 -999
2008-06-27 08:17:57 51°18.143 2°52.518 -999 -999 -999 -999 -999
2008-06-27 08:18:02 51°18.16 2°52.516 -999 -999 -999 -999 -999
2008-06-27 08:18:07 51°18.177 2°52.514 -999 -999 -999 -999 -999
2008-06-27 08:18:12 51°18.195 2°52.513 -999 -999 -999 -999 -999
2008-06-27 08:18:17 51°18.212 2°52.511 -999 -999 -999 -999 -999
2008-06-27 08:18:22 51°18.229 2°52.509 -999 -999 -999 -999 -999
2008-06-27 08:18:27 51°18.246 2°52.509 -999 -999 -999 -999 -999
2008-06-27 08:18:32 51°18.264 2°52.506 -999 -999 -999 -999 -999
2008-06-27 08:18:37 51°18.281 2°52.506 -999 -999 -999 -999 -999
2008-06-27 08:18:42 51°18.298 2°52.504 -999 -999 -999 -999 -999
2008-06-27 08:18:47 51°18.316 2°52.503 -999 -999 -999 -999 -999
2008-06-27 08:18:52 51°18.333 2°52.502 -999 -999 -999 -999 -999
2008-06-27 08:18:57 51°18.351 2°52.5 -999 -999 -999 -999 -999
2008-06-27 08:19:02 51°18.368 2°52.502 -999 -999 -999 -999 -999
2008-06-27 08:19:07 51°18.384 2°52.501 -999 -999 -999 -999 -999
2008-06-27 08:19:12 51°18.402 2°52.502 -999 -999 -999 -999 -999
2008-06-27 08:19:17 51°18.419 2°52.499 -999 -999 -999 -999 -999
2008-06-27 08:19:22 51°18.436 2°52.499 -999 -999 -999 -999 -999
2008-06-27 08:19:27 51°18.453 2°52.497 -999 -999 -999 -999 -999
2008-06-27 08:19:32 51°18.471 2°52.496 -999 -999 -999 -999 -999
2008-06-27 08:19:37 51°18.488 2°52.495 -999 -999 -999 -999 -999
2008-06-27 08:19:42 51°18.505 2°52.494 -999 -999 -999 -999 -999
2008-06-27 08:19:47 51°18.522 2°52.494 -999 -999 -999 -999 -999
2008-06-27 08:19:52 51°18.54 2°52.492 -999 -999 -999 -999 -999
2008-06-27 08:19:57 51°18.557 2°52.491 -999 -999 -999 -999 -999
2008-06-27 08:20:02 51°18.574 2°52.491 -999 -999 -999 -999 -999
2008-06-27 08:20:07 51°18.592 2°52.489 -999 -999 -999 -999 -999
2008-06-27 08:20:12 51°18.609 2°52.489 -999 -999 -999 -999 -999
2008-06-27 08:20:17 51°18.626 2°52.487 -999 -999 -999 -999 -999
2008-06-27 08:20:22 51°18.643 2°52.489 -999 -999 -999 -999 -999
2008-06-27 08:20:27 51°18.661 2°52.487 -999 -999 -999 -999 -999
2008-06-27 08:20:32 51°18.678 2°52.49 -999 -999 -999 -999 -999
2008-06-27 08:20:37 51°18.695 2°52.491 -999 -999 -999 -999 -999
2008-06-27 08:20:42 51°18.712 2°52.494 -999 -999 -999 -999 -999
2008-06-27 08:20:47 51°18.729 2°52.497 -999 -999 -999 -999 -999
2008-06-27 08:20:52 51°18.747 2°52.499 -999 -999 -999 -999 -999
2008-06-27 08:20:57 51°18.764 2°52.503 -999 -999 -999 -999 -999
2008-06-27 08:21:02 51°18.781 2°52.505 -999 -999 -999 -999 -999
2008-06-27 08:21:07 51°18.798 2°52.51 -999 -999 -999 -999 -999
2008-06-27 08:21:12 51°18.816 2°52.512 -999 -999 -999 -999 -999
2008-06-27 08:21:17 51°18.833 2°52.515 -999 -999 -999 -999 -999
2008-06-27 08:21:22 51°18.85 2°52.518 -999 -999 -999 -999 -999
2008-06-27 08:21:27 51°18.867 2°52.52 -999 -999 -999 -999 -999
2008-06-27 08:21:32 51°18.885 2°52.522 -999 -999 -999 -999 -999
2008-06-27 08:21:37 51°18.902 2°52.524 -999 -999 -999 -999 -999
2008-06-27 08:21:42 51°18.92 2°52.527 -999 -999 -999 -999 -999
2008-06-27 08:21:47 51°18.937 2°52.529 -999 -999 -999 -999 -999
2008-06-27 08:21:52 51°18.954 2°52.532 -999 -999 -999 -999 -999
2008-06-27 08:21:57 51°18.971 2°52.533 -999 -999 -999 -999 -999
2008-06-27 08:22:02 51°18.988 2°52.537 -999 -999 -999 -999 -999
2008-06-27 08:22:07 51°19.005 2°52.539 -999 -999 -999 -999 -999
2008-06-27 08:22:12 51°19.023 2°52.54 -999 -999 -999 -999 -999
2008-06-27 08:22:17 51°19.04 2°52.543 -999 -999 -999 -999 -999
2008-06-27 08:22:22 51°19.057 2°52.545 -999 -999 -999 -999 -999
2008-06-27 08:22:27 51°19.074 2°52.548 -999 -999 -999 -999 -999
2008-06-27 08:22:32 51°19.091 2°52.551 -999 -999 -999 -999 -999
2008-06-27 08:22:37 51°19.108 2°52.554 -999 -999 -999 -999 -999
2008-06-27 08:22:42 51°19.125 2°52.557 -999 -999 -999 -999 -999
2008-06-27 08:22:47 51°19.142 2°52.559 -999 -999 -999 -999 -999
2008-06-27 08:22:52 51°19.158 2°52.561 -999 -999 -999 -999 -999
2008-06-27 08:22:57 51°19.174 2°52.564 -999 -999 -999 -999 -999
2008-06-27 08:23:02 51°19.19 2°52.567 -999 -999 -999 -999 -999
2008-06-27 08:23:07 51°19.204 2°52.569 -999 -999 -999 -999 -999
2008-06-27 08:23:12 51°19.218 2°52.571 -999 -999 -999 -999 -999
2008-06-27 08:23:17 51°19.23 2°52.573 -999 -999 -999 -999 -999
2008-06-27 08:23:22 51°19.242 2°52.572 -999 -999 -999 -999 -999
2008-06-27 08:23:27 51°19.252 2°52.569 -999 -999 -999 -999 -999
2008-06-27 08:23:32 51°19.261 2°52.566 -999 -999 -999 -999 -999
2008-06-27 08:23:37 51°19.27 2°52.562 -999 -999 -999 -999 -999
2008-06-27 08:23:42 51°19.277 2°52.557 -999 -999 -999 -999 -999
2008-06-27 08:23:47 51°19.284 2°52.552 -999 -999 -999 -999 -999
2008-06-27 08:23:52 51°19.289 2°52.545 -999 -999 -999 -999 -999
2008-06-27 08:23:57 51°19.294 2°52.539 -999 -999 -999 -999 -999
2008-06-27 08:24:02 51°19.297 2°52.532 -999 -999 -999 -999 -999
2008-06-27 08:24:07 51°19.3 2°52.525 -999 -999 -999 -999 -999
2008-06-27 08:24:12 51°19.302 2°52.518 -999 -999 -999 -999 -999
2008-06-27 08:24:17 51°19.304 2°52.511 -999 -999 -999 -999 -999
2008-06-27 08:24:22 51°19.305 2°52.504 -999 -999 -999 -999 -999
2008-06-27 08:24:27 51°19.305 2°52.497 -999 -999 -999 -999 -999
2008-06-27 08:24:32 51°19.306 2°52.489 -999 -999 -999 -999 -999
2008-06-27 08:24:37 51°19.305 2°52.482 -999 -999 -999 -999 -999
2008-06-27 08:24:42 51°19.305 2°52.475 -999 -999 -999 -999 -999
2008-06-27 08:24:47 51°19.304 2°52.467 -999 -999 -999 -999 -999
2008-06-27 08:24:52 51°19.303 2°52.459 -999 -999 -999 -999 -999
2008-06-27 08:24:57 51°19.302 2°52.452 -999 -999 -999 -999 -999
2008-06-27 08:25:02 51°19.301 2°52.444 -999 -999 -999 -999 -999
2008-06-27 08:25:07 51°19.301 2°52.436 -999 -999 -999 -999 -999
2008-06-27 08:25:12 51°19.3 2°52.427 -999 -999 -999 -999 -999
2008-06-27 08:25:17 51°19.301 2°52.419 -999 -999 -999 -999 -999
2008-06-27 08:25:22 51°19.301 2°52.411 -999 -999 -999 -999 -999
2008-06-27 08:25:27 51°19.302 2°52.403 -999 -999 -999 -999 -999
2008-06-27 08:25:32 51°19.304 2°52.396 -999 -999 -999 -999 -999
2008-06-27 08:25:37 51°19.305 2°52.388 -999 -999 -999 -999 -999
2008-06-27 08:25:42 51°19.306 2°52.38 -999 -999 -999 -999 -999
2008-06-27 08:25:47 51°19.308 2°52.371 -999 -999 -999 -999 -999
2008-06-27 08:25:52 51°19.31 2°52.363 -999 -999 -999 -999 -999
2008-06-27 08:25:57 51°19.311 2°52.355 -999 -999 -999 -999 -999
2008-06-27 08:26:02 51°19.313 2°52.347 -999 -999 -999 -999 -999
2008-06-27 08:26:07 51°19.314 2°52.339 -999 -999 -999 -999 -999
2008-06-27 08:26:12 51°19.315 2°52.331 -999 -999 -999 -999 -999
2008-06-27 08:26:17 51°19.315 2°52.323 -999 -999 -999 -999 -999
2008-06-27 08:26:22 51°19.315 2°52.315 -999 -999 -999 -999 -999
2008-06-27 08:26:27 51°19.314 2°52.307 -999 -999 -999 -999 -999
2008-06-27 08:26:32 51°19.313 2°52.299 -999 -999 -999 -999 -999
2008-06-27 08:26:37 51°19.312 2°52.291 -999 -999 -999 -999 -999
2008-06-27 08:26:42 51°19.311 2°52.284 -999 -999 -999 -999 -999
2008-06-27 08:26:47 51°19.31 2°52.276 -999 -999 -999 -999 -999
2008-06-27 08:26:52 51°19.309 2°52.269 -999 -999 -999 -999 -999
2008-06-27 08:26:57 51°19.309 2°52.262 -999 -999 -999 -999 -999
2008-06-27 08:27:03 51°19.309 2°52.254 -999 -999 -999 -999 -999
2008-06-27 08:27:07 51°19.309 2°52.249 -999 -999 -999 -999 -999
2008-06-27 08:27:12 51°19.309 2°52.244 -999 -999 -999 -999 -999
2008-06-27 08:27:17 51°19.309 2°52.239 -999 -999 -999 -999 -999
2008-06-27 08:27:22 51°19.309 2°52.234 -999 -999 -999 -999 -999
2008-06-27 08:27:27 51°19.309 2°52.229 -999 -999 -999 -999 -999
2008-06-27 08:27:32 51°19.309 2°52.225 -999 -999 -999 -999 -999
2008-06-27 08:27:37 51°19.309 2°52.221 -999 -999 -999 -999 -999
2008-06-27 08:27:42 51°19.309 2°52.218 -999 -999 -999 -999 -999
2008-06-27 08:27:47 51°19.31 2°52.214 -999 -999 -999 -999 -999
2008-06-27 08:27:52 51°19.31 2°52.211 -999 -999 -999 -999 -999
2008-06-27 08:27:57 51°19.311 2°52.208 -999 -999 -999 -999 -999
2008-06-27 08:28:02 51°19.311 2°52.205 -999 -999 -999 -999 -999
2008-06-27 08:28:07 51°19.311 2°52.203 -999 -999 -999 -999 -999
2008-06-27 08:28:12 51°19.312 2°52.2 -999 -999 -999 -999 -999
2008-06-27 08:28:17 51°19.312 2°52.199 -999 -999 -999 -999 -999
2008-06-27 08:28:22 51°19.312 2°52.197 -999 -999 -999 -999 -999
2008-06-27 08:28:27 51°19.313 2°52.195 -999 -999 -999 -999 -999
2008-06-27 08:28:32 51°19.313 2°52.193 -999 -999 -999 -999 -999
2008-06-27 08:28:37 51°19.313 2°52.191 -999 -999 -999 -999 -999
2008-06-27 08:28:42 51°19.313 2°52.191 -999 -999 -999 -999 -999
2008-06-27 08:28:47 51°19.313 2°52.19 -999 -999 -999 -999 -999
2008-06-27 08:28:52 51°19.313 2°52.189 -999 -999 -999 -999 -999
2008-06-27 08:28:57 51°19.313 2°52.189 -999 -999 -999 -999 -999
2008-06-27 08:29:03 51°19.313 2°52.188 -999 -999 -999 -999 -999
2008-06-27 08:29:07 51°19.312 2°52.188 -999 -999 -999 -999 -999
2008-06-27 08:29:12 51°19.312 2°52.188 -999 -999 -999 -999 -999
2008-06-27 08:29:17 51°19.312 2°52.189 -999 -999 -999 -999 -999
2008-06-27 08:29:22 51°19.312 2°52.189 -999 -999 -999 -999 -999
2008-06-27 08:29:27 51°19.311 2°52.189 -999 -999 -999 -999 -999
2008-06-27 08:29:32 51°19.311 2°52.19 -999 -999 -999 -999 -999
2008-06-27 08:29:37 51°19.311 2°52.19 -999 -999 -999 -999 -999
2008-06-27 08:29:42 51°19.311 2°52.191 -999 -999 -999 -999 -999
2008-06-27 08:29:47 51°19.31 2°52.191 -999 -999 -999 -999 -999
2008-06-27 08:29:52 51°19.309 2°52.191 -999 -999 -999 -999 -999
2008-06-27 08:29:57 51°19.309 2°52.19 -999 -999 -999 -999 -999
2008-06-27 08:30:02 51°19.308 2°52.19 -999 -999 -999 -999 -999
2008-06-27 08:30:07 51°19.307 2°52.19 -999 -999 -999 -999 -999
2008-06-27 08:30:12 51°19.306 2°52.189 -999 -999 -999 -999 -999
2008-06-27 08:30:17 51°19.305 2°52.188 -999 -999 -999 -999 -999
2008-06-27 08:30:22 51°19.304 2°52.187 -999 -999 -999 -999 -999
2008-06-27 08:30:27 51°19.303 2°52.186 -999 -999 -999 -999 -999
2008-06-27 08:30:32 51°19.302 2°52.184 -999 -999 -999 -999 -999
2008-06-27 08:30:37 51°19.3 2°52.182 -999 -999 -999 -999 -999
2008-06-27 08:30:42 51°19.299 2°52.18 -999 -999 -999 -999 -999
2008-06-27 08:30:47 51°19.298 2°52.179 -999 -999 -999 -999 -999
2008-06-27 08:30:52 51°19.296 2°52.177 -999 -999 -999 -999 -999
2008-06-27 08:30:57 51°19.295 2°52.175 -999 -999 -999 -999 -999
2008-06-27 08:31:02 51°19.294 2°52.173 -999 -999 -999 -999 -999
2008-06-27 08:31:07 51°19.292 2°52.171 -999 -999 -999 -999 -999
2008-06-27 08:31:12 51°19.291 2°52.168 -999 -999 -999 -999 -999
2008-06-27 08:31:17 51°19.29 2°52.166 -999 -999 -999 -999 -999
2008-06-27 08:31:23 51°19.288 2°52.163 -999 -999 -999 -999 -999
2008-06-27 08:31:27 51°19.287 2°52.161 -999 -999 -999 -999 -999
2008-06-27 08:31:32 51°19.285 2°52.158 -999 -999 -999 -999 -999
2008-06-27 08:31:37 51°19.284 2°52.156 -999 -999 -999 -999 -999
2008-06-27 08:31:42 51°19.283 2°52.155 -999 -999 -999 -999 -999
2008-06-27 08:31:47 51°19.282 2°52.153 -999 -999 -999 -999 -999
2008-06-27 08:31:52 51°19.281 2°52.151 -999 -999 -999 -999 -999
2008-06-27 08:31:57 51°19.28 2°52.15 -999 -999 -999 -999 -999
2008-06-27 08:32:02 51°19.279 2°52.149 -999 -999 -999 -999 -999
2008-06-27 08:32:07 51°19.278 2°52.148 -999 -999 -999 -999 -999
2008-06-27 08:32:12 51°19.277 2°52.147 -999 -999 -999 -999 -999
2008-06-27 08:32:17 51°19.276 2°52.146 -999 -999 -999 -999 -999
2008-06-27 08:32:22 51°19.275 2°52.145 -999 -999 -999 -999 -999
2008-06-27 08:32:27 51°19.275 2°52.144 -999 -999 -999 -999 -999
2008-06-27 08:32:32 51°19.274 2°52.143 -999 -999 -999 -999 -999
2008-06-27 08:32:37 51°19.273 2°52.143 -999 -999 -999 -999 -999
2008-06-27 08:32:42 51°19.272 2°52.142 -999 -999 -999 -999 -999
2008-06-27 08:32:47 51°19.272 2°52.141 -999 -999 -999 -999 -999
2008-06-27 08:32:52 51°19.271 2°52.141 -999 -999 -999 -999 -999
2008-06-27 08:32:57 51°19.27 2°52.14 -999 -999 -999 -999 -999
2008-06-27 08:33:02 51°19.27 2°52.14 -999 -999 -999 -999 -999
2008-06-27 08:33:07 51°19.269 2°52.14 -999 -999 -999 -999 -999
2008-06-27 08:33:12 51°19.268 2°52.14 -999 -999 -999 -999 -999
2008-06-27 08:33:17 51°19.268 2°52.14 -999 -999 -999 -999 -999
2008-06-27 08:33:23 51°19.267 2°52.141 -999 -999 -999 -999 -999
2008-06-27 08:33:27 51°19.266 2°52.141 -999 -999 -999 -999 -999
2008-06-27 08:33:32 51°19.266 2°52.141 -999 -999 -999 -999 -999
2008-06-27 08:33:37 51°19.265 2°52.142 -999 -999 -999 -999 -999
2008-06-27 08:33:42 51°19.265 2°52.142 -999 -999 -999 -999 -999
2008-06-27 08:33:47 51°19.264 2°52.142 -999 -999 -999 -999 -999
2008-06-27 08:33:52 51°19.263 2°52.142 -999 -999 -999 -999 -999
2008-06-27 08:33:57 51°19.263 2°52.142 -999 -999 -999 -999 -999
2008-06-27 08:34:02 51°19.262 2°52.143 -999 -999 -999 -999 -999
2008-06-27 08:34:07 51°19.262 2°52.143 -999 -999 -999 -999 -999
2008-06-27 08:34:12 51°19.261 2°52.143 -999 -999 -999 -999 -999
2008-06-27 08:34:17 51°19.26 2°52.144 -999 -999 -999 -999 -999
2008-06-27 08:34:22 51°19.26 2°52.144 -999 -999 -999 -999 -999
2008-06-27 08:34:27 51°19.26 2°52.144 -999 -999 -999 -999 -999
2008-06-27 08:34:32 51°19.259 2°52.144 -999 -999 -999 -999 -999
2008-06-27 08:34:37 51°19.258 2°52.144 -999 -999 -999 -999 -999
2008-06-27 08:34:42 51°19.258 2°52.145 -999 -999 -999 -999 -999
2008-06-27 08:34:47 51°19.257 2°52.145 -999 -999 -999 -999 -999
2008-06-27 08:34:52 51°19.257 2°52.146 -999 -999 -999 -999 -999
2008-06-27 08:34:57 51°19.256 2°52.146 -999 -999 -999 -999 -999
2008-06-27 08:35:02 51°19.256 2°52.146 -999 -999 -999 -999 -999
2008-06-27 08:35:07 51°19.255 2°52.146 -999 -999 -999 -999 -999
2008-06-27 08:35:12 51°19.255 2°52.147 -999 -999 -999 -999 -999
2008-06-27 08:35:17 51°19.254 2°52.147 -999 -999 -999 -999 -999
2008-06-27 08:35:22 51°19.253 2°52.147 -999 -999 -999 -999 -999
2008-06-27 08:35:27 51°19.253 2°52.148 -999 -999 -999 -999 -999
2008-06-27 08:35:32 51°19.252 2°52.149 -999 -999 -999 -999 -999
2008-06-27 08:35:38 51°19.252 2°52.149 -999 -999 -999 -999 -999
2008-06-27 08:35:42 51°19.251 2°52.149 -999 -999 -999 -999 -999
2008-06-27 08:35:47 51°19.251 2°52.149 -999 -999 -999 -999 -999
2008-06-27 08:35:52 51°19.25 2°52.15 -999 -999 -999 -999 -999
2008-06-27 08:35:57 51°19.25 2°52.15 -999 -999 -999 -999 -999
2008-06-27 08:36:02 51°19.249 2°52.151 -999 -999 -999 -999 -999
2008-06-27 08:36:07 51°19.248 2°52.151 -999 -999 -999 -999 -999
2008-06-27 08:36:12 51°19.248 2°52.151 -999 -999 -999 -999 -999
2008-06-27 08:36:17 51°19.247 2°52.152 -999 -999 -999 -999 -999
2008-06-27 08:36:23 51°19.247 2°52.152 -999 -999 -999 -999 -999
2008-06-27 08:36:27 51°19.246 2°52.153 -999 -999 -999 -999 -999
2008-06-27 08:36:32 51°19.246 2°52.153 -999 -999 -999 -999 -999
2008-06-27 08:36:37 51°19.246 2°52.154 -999 -999 -999 -999 -999
2008-06-27 08:36:42 51°19.245 2°52.154 -999 -999 -999 -999 -999
2008-06-27 08:36:47 51°19.245 2°52.155 -999 -999 -999 -999 -999
2008-06-27 08:36:52 51°19.245 2°52.155 -999 -999 -999 -999 -999
2008-06-27 08:36:57 51°19.244 2°52.156 -999 -999 -999 -999 -999
2008-06-27 08:37:02 51°19.244 2°52.156 -999 -999 -999 -999 -999
2008-06-27 08:37:07 51°19.244 2°52.156 -999 -999 -999 -999 -999
2008-06-27 08:37:12 51°19.243 2°52.157 -999 -999 -999 -999 -999
2008-06-27 08:37:17 51°19.243 2°52.158 -999 -999 -999 -999 -999
2008-06-27 08:37:22 51°19.243 2°52.158 -999 -999 -999 -999 -999
2008-06-27 08:37:27 51°19.243 2°52.159 -999 -999 -999 -999 -999
2008-06-27 08:37:32 51°19.242 2°52.16 -999 -999 -999 -999 -999
2008-06-27 08:37:37 51°19.242 2°52.16 -999 -999 -999 -999 -999
2008-06-27 08:37:42 51°19.242 2°52.161 -999 -999 -999 -999 -999
2008-06-27 08:37:47 51°19.241 2°52.161 -999 -999 -999 -999 -999
2008-06-27 08:37:52 51°19.241 2°52.162 -999 -999 -999 -999 -999
2008-06-27 08:37:57 51°19.241 2°52.163 -999 -999 -999 -999 -999
2008-06-27 08:38:02 51°19.241 2°52.164 -999 -999 -999 -999 -999
2008-06-27 08:38:07 51°19.24 2°52.164 -999 -999 -999 -999 -999
2008-06-27 08:38:12 51°19.24 2°52.165 -999 -999 -999 -999 -999
2008-06-27 08:38:17 51°19.24 2°52.166 -999 -999 -999 -999 -999
2008-06-27 08:38:23 51°19.24 2°52.167 -999 -999 -999 -999 -999
2008-06-27 08:38:27 51°19.239 2°52.167 -999 -999 -999 -999 -999
2008-06-27 08:38:32 51°19.239 2°52.168 -999 -999 -999 -999 -999
2008-06-27 08:38:37 51°19.239 2°52.168 -999 -999 -999 -999 -999
2008-06-27 08:38:43 51°19.239 2°52.169 -999 -999 -999 -999 -999
2008-06-27 08:38:47 51°19.239 2°52.17 -999 -999 -999 -999 -999
2008-06-27 08:38:52 51°19.238 2°52.17 -999 -999 -999 -999 -999
2008-06-27 08:38:57 51°19.238 2°52.171 -999 -999 -999 -999 -999
2008-06-27 08:39:02 51°19.238 2°52.172 -999 -999 -999 -999 -999
2008-06-27 08:39:07 51°19.237 2°52.173 -999 -999 -999 -999 -999
2008-06-27 08:39:12 51°19.237 2°52.173 -999 -999 -999 -999 -999
2008-06-27 08:39:17 51°19.237 2°52.174 -999 -999 -999 -999 -999
2008-06-27 08:39:22 51°19.237 2°52.175 -999 -999 -999 -999 -999
2008-06-27 08:39:27 51°19.237 2°52.175 -999 -999 -999 -999 -999
2008-06-27 08:39:32 51°19.237 2°52.176 -999 -999 -999 -999 -999
2008-06-27 08:39:37 51°19.236 2°52.176 -999 -999 -999 -999 -999
2008-06-27 08:39:42 51°19.236 2°52.177 -999 -999 -999 -999 -999
2008-06-27 08:39:47 51°19.236 2°52.177 -999 -999 -999 -999 -999
2008-06-27 08:39:52 51°19.236 2°52.178 -999 -999 -999 -999 -999
2008-06-27 08:39:57 51°19.236 2°52.179 -999 -999 -999 -999 -999
2008-06-27 08:40:02 51°19.236 2°52.18 -999 -999 -999 -999 -999
2008-06-27 08:40:07 51°19.236 2°52.181 -999 -999 -999 -999 -999
2008-06-27 08:40:12 51°19.236 2°52.181 -999 -999 -999 -999 -999
2008-06-27 08:40:17 51°19.236 2°52.182 -999 -999 -999 -999 -999
2008-06-27 08:40:22 51°19.236 2°52.183 -999 -999 -999 -999 -999
2008-06-27 08:40:27 51°19.236 2°52.183 -999 -999 -999 -999 -999
2008-06-27 08:40:32 51°19.236 2°52.184 -999 -999 -999 -999 -999
2008-06-27 08:40:37 51°19.236 2°52.184 -999 -999 -999 -999 -999
2008-06-27 08:40:42 51°19.236 2°52.184 -999 -999 -999 -999 -999
2008-06-27 08:40:47 51°19.236 2°52.184 -999 -999 -999 -999 -999
2008-06-27 08:40:52 51°19.236 2°52.184 -999 -999 -999 -999 -999
2008-06-27 08:40:57 51°19.236 2°52.184 -999 -999 -999 -999 -999
2008-06-27 08:41:02 51°19.236 2°52.183 -999 -999 -999 -999 -999
2008-06-27 08:41:07 51°19.236 2°52.183 -999 -999 -999 -999 -999
2008-06-27 08:41:12 51°19.236 2°52.182 -999 -999 -999 -999 -999
2008-06-27 08:41:17 51°19.236 2°52.181 -999 -999 -999 -999 -999
2008-06-27 08:41:22 51°19.236 2°52.181 -999 -999 -999 -999 -999
2008-06-27 08:41:27 51°19.237 2°52.18 -999 -999 -999 -999 -999
2008-06-27 08:41:32 51°19.237 2°52.179 -999 -999 -999 -999 -999
2008-06-27 08:41:37 51°19.237 2°52.178 -999 -999 -999 -999 -999
2008-06-27 08:41:42 51°19.238 2°52.176 -999 -999 -999 -999 -999
2008-06-27 08:41:47 51°19.238 2°52.175 -999 -999 -999 -999 -999
2008-06-27 08:41:52 51°19.239 2°52.174 -999 -999 -999 -999 -999
2008-06-27 08:41:57 51°19.239 2°52.173 -999 -999 -999 -999 -999
2008-06-27 08:42:02 51°19.24 2°52.172 -999 -999 -999 -999 -999
2008-06-27 08:42:07 51°19.24 2°52.172 -999 -999 -999 -999 -999
2008-06-27 08:42:12 51°19.241 2°52.171 -999 -999 -999 -999 -999
2008-06-27 08:42:17 51°19.242 2°52.17 -999 -999 -999 -999 -999
2008-06-27 08:42:22 51°19.243 2°52.17 -999 -999 -999 -999 -999
2008-06-27 08:42:27 51°19.243 2°52.169 -999 -999 -999 -999 -999
2008-06-27 08:42:32 51°19.244 2°52.169 -999 -999 -999 -999 -999
2008-06-27 08:42:37 51°19.245 2°52.168 -999 -999 -999 -999 -999
2008-06-27 08:42:43 51°19.246 2°52.168 -999 -999 -999 -999 -999
2008-06-27 08:42:47 51°19.247 2°52.167 -999 -999 -999 -999 -999
2008-06-27 08:42:52 51°19.248 2°52.167 -999 -999 -999 -999 -999
2008-06-27 08:42:57 51°19.248 2°52.167 -999 -999 -999 -999 -999
2008-06-27 08:43:02 51°19.249 2°52.166 -999 -999 -999 -999 -999
2008-06-27 08:43:07 51°19.25 2°52.166 -999 -999 -999 -999 -999
2008-06-27 08:43:12 51°19.251 2°52.166 -999 -999 -999 -999 -999
2008-06-27 08:43:17 51°19.252 2°52.165 -999 -999 -999 -999 -999
2008-06-27 08:43:22 51°19.253 2°52.165 -999 -999 -999 -999 -999
2008-06-27 08:43:27 51°19.254 2°52.165 -999 -999 -999 -999 -999
2008-06-27 08:43:32 51°19.255 2°52.165 -999 -999 -999 -999 -999
2008-06-27 08:43:37 51°19.256 2°52.164 -999 -999 -999 -999 -999
2008-06-27 08:43:42 51°19.257 2°52.164 -999 -999 -999 -999 -999
2008-06-27 08:43:47 51°19.258 2°52.164 -999 -999 -999 -999 -999
2008-06-27 08:43:52 51°19.259 2°52.164 -999 -999 -999 -999 -999
2008-06-27 08:43:57 51°19.26 2°52.164 -999 -999 -999 -999 -999
2008-06-27 08:44:02 51°19.261 2°52.164 -999 -999 -999 -999 -999
2008-06-27 08:44:07 51°19.262 2°52.164 -999 -999 -999 -999 -999
2008-06-27 08:44:12 51°19.263 2°52.164 -999 -999 -999 -999 -999
2008-06-27 08:44:17 51°19.265 2°52.165 -999 -999 -999 -999 -999
2008-06-27 08:44:22 51°19.266 2°52.165 -999 -999 -999 -999 -999
2008-06-27 08:44:27 51°19.267 2°52.165 -999 -999 -999 -999 -999
2008-06-27 08:44:32 51°19.268 2°52.165 -999 -999 -999 -999 -999
2008-06-27 08:44:37 51°19.269 2°52.165 -999 -999 -999 -999 -999
2008-06-27 08:44:42 51°19.271 2°52.165 -999 -999 -999 -999 -999
2008-06-27 08:44:47 51°19.272 2°52.165 -999 -999 -999 -999 -999
2008-06-27 08:44:52 51°19.274 2°52.165 -999 -999 -999 -999 -999
2008-06-27 08:44:57 51°19.275 2°52.165 -999 -999 -999 -999 -999
2008-06-27 08:45:03 51°19.277 2°52.166 -999 -999 -999 -999 -999
2008-06-27 08:45:07 51°19.277 2°52.166 -999 -999 -999 -999 -999
2008-06-27 08:45:12 51°19.279 2°52.167 -999 -999 -999 -999 -999
2008-06-27 08:45:17 51°19.28 2°52.167 -999 -999 -999 -999 -999
2008-06-27 08:45:23 51°19.281 2°52.168 -999 -999 -999 -999 -999
2008-06-27 08:45:27 51°19.282 2°52.168 -999 -999 -999 -999 -999
2008-06-27 08:45:32 51°19.283 2°52.169 -999 -999 -999 -999 -999
2008-06-27 08:45:37 51°19.285 2°52.169 -999 -999 -999 -999 -999
2008-06-27 08:45:42 51°19.286 2°52.17 -999 -999 -999 -999 -999
2008-06-27 08:45:47 51°19.287 2°52.17 -999 -999 -999 -999 -999
2008-06-27 08:45:52 51°19.288 2°52.171 -999 -999 -999 -999 -999
2008-06-27 08:45:57 51°19.289 2°52.172 -999 -999 -999 -999 -999
2008-06-27 08:46:02 51°19.29 2°52.172 -999 -999 -999 -999 -999
2008-06-27 08:46:07 51°19.291 2°52.173 -999 -999 -999 -999 -999
2008-06-27 08:46:12 51°19.292 2°52.174 -999 -999 -999 -999 -999
2008-06-27 08:46:17 51°19.294 2°52.176 -999 -999 -999 -999 -999
2008-06-27 08:46:22 51°19.295 2°52.176 -999 -999 -999 -999 -999
2008-06-27 08:46:27 51°19.296 2°52.178 -999 -999 -999 -999 -999
2008-06-27 08:46:32 51°19.297 2°52.179 -999 -999 -999 -999 -999
2008-06-27 08:46:37 51°19.298 2°52.18 -999 -999 -999 -999 -999
2008-06-27 08:46:42 51°19.298 2°52.18 -999 -999 -999 -999 -999
2008-06-27 08:46:47 51°19.299 2°52.182 -999 -999 -999 -999 -999
2008-06-27 08:46:52 51°19.3 2°52.183 -999 -999 -999 -999 -999
2008-06-27 08:46:57 51°19.301 2°52.184 -999 -999 -999 -999 -999
2008-06-27 08:47:03 51°19.302 2°52.185 -999 -999 -999 -999 -999
2008-06-27 08:47:07 51°19.303 2°52.186 -999 -999 -999 -999 -999
2008-06-27 08:47:12 51°19.304 2°52.187 -999 -999 -999 -999 -999
2008-06-27 08:47:17 51°19.305 2°52.188 -999 -999 -999 -999 -999
2008-06-27 08:47:23 51°19.306 2°52.189 -999 -999 -999 -999 -999
2008-06-27 08:47:27 51°19.307 2°52.19 -999 -999 -999 -999 -999
2008-06-27 08:47:32 51°19.308 2°52.191 -999 -999 -999 -999 -999
2008-06-27 08:47:37 51°19.308 2°52.192 -999 -999 -999 -999 -999
2008-06-27 08:47:42 51°19.309 2°52.193 -999 -999 -999 -999 -999
2008-06-27 08:47:47 51°19.31 2°52.194 -999 -999 -999 -999 -999
2008-06-27 08:47:52 51°19.311 2°52.195 -999 -999 -999 -999 -999
2008-06-27 08:47:57 51°19.312 2°52.196 -999 -999 -999 -999 -999
2008-06-27 08:48:02 51°19.313 2°52.197 -999 -999 -999 -999 -999
2008-06-27 08:48:07 51°19.314 2°52.198 -999 -999 -999 -999 -999
2008-06-27 08:48:12 51°19.315 2°52.199 -999 -999 -999 -999 -999
2008-06-27 08:48:17 51°19.316 2°52.199 -999 -999 -999 -999 -999
2008-06-27 08:48:22 51°19.317 2°52.199 -999 -999 -999 -999 -999
2008-06-27 08:48:27 51°19.318 2°52.2 -999 -999 -999 -999 -999
2008-06-27 08:48:32 51°19.318 2°52.2 -999 -999 -999 -999 -999
2008-06-27 08:48:37 51°19.319 2°52.201 -999 -999 -999 -999 -999
2008-06-27 08:48:42 51°19.32 2°52.201 -999 -999 -999 -999 -999
2008-06-27 08:48:47 51°19.321 2°52.201 -999 -999 -999 -999 -999
2008-06-27 08:48:52 51°19.321 2°52.201 -999 -999 -999 -999 -999
2008-06-27 08:48:57 51°19.322 2°52.201 -999 -999 -999 -999 -999
2008-06-27 08:49:02 51°19.323 2°52.202 -999 -999 -999 -999 -999
2008-06-27 08:49:07 51°19.323 2°52.201 -999 -999 -999 -999 -999
2008-06-27 08:49:12 51°19.324 2°52.201 -999 -999 -999 -999 -999
2008-06-27 08:49:18 51°19.325 2°52.2 -999 -999 -999 -999 -999
2008-06-27 08:49:23 51°19.326 2°52.2 -999 -999 -999 -999 -999
2008-06-27 08:49:27 51°19.326 2°52.199 -999 -999 -999 -999 -999
2008-06-27 08:49:32 51°19.327 2°52.198 -999 -999 -999 -999 -999
2008-06-27 08:49:37 51°19.327 2°52.197 -999 -999 -999 -999 -999
2008-06-27 08:49:42 51°19.328 2°52.195 -999 -999 -999 -999 -999
2008-06-27 08:49:47 51°19.328 2°52.194 -999 -999 -999 -999 -999
2008-06-27 08:49:52 51°19.329 2°52.192 -999 -999 -999 -999 -999
2008-06-27 08:49:57 51°19.329 2°52.191 -999 -999 -999 -999 -999
2008-06-27 08:50:02 51°19.329 2°52.189 -999 -999 -999 -999 -999
2008-06-27 08:50:07 51°19.329 2°52.187 -999 -999 -999 -999 -999
2008-06-27 08:50:12 51°19.329 2°52.185 -999 -999 -999 -999 -999
2008-06-27 08:50:17 51°19.329 2°52.183 -999 -999 -999 -999 -999
2008-06-27 08:50:22 51°19.329 2°52.181 -999 -999 -999 -999 -999
2008-06-27 08:50:27 51°19.329 2°52.179 -999 -999 -999 -999 -999
2008-06-27 08:50:32 51°19.33 2°52.176 -999 -999 -999 -999 -999
2008-06-27 08:50:37 51°19.329 2°52.174 -999 -999 -999 -999 -999
2008-06-27 08:50:42 51°19.329 2°52.171 -999 -999 -999 -999 -999
2008-06-27 08:50:47 51°19.329 2°52.169 -999 -999 -999 -999 -999
2008-06-27 08:50:52 51°19.329 2°52.166 -999 -999 -999 -999 -999
2008-06-27 08:50:57 51°19.328 2°52.164 -999 -999 -999 -999 -999
2008-06-27 08:51:02 51°19.328 2°52.161 -999 -999 -999 -999 -999
2008-06-27 08:51:07 51°19.327 2°52.158 -999 -999 -999 -999 -999
2008-06-27 08:51:12 51°19.326 2°52.156 -999 -999 -999 -999 -999
2008-06-27 08:51:17 51°19.326 2°52.153 -999 -999 -999 -999 -999
2008-06-27 08:51:23 51°19.324 2°52.15 -999 -999 -999 -999 -999
2008-06-27 08:51:27 51°19.323 2°52.148 -999 -999 -999 -999 -999
2008-06-27 08:51:32 51°19.323 2°52.145 -999 -999 -999 -999 -999
2008-06-27 08:51:38 51°19.321 2°52.142 -999 -999 -999 -999 -999
2008-06-27 08:51:42 51°19.32 2°52.139 -999 -999 -999 -999 -999
2008-06-27 08:51:47 51°19.319 2°52.137 -999 -999 -999 -999 -999
2008-06-27 08:51:52 51°19.317 2°52.134 -999 -999 -999 -999 -999
2008-06-27 08:51:57 51°19.316 2°52.131 -999 -999 -999 -999 -999
2008-06-27 08:52:02 51°19.315 2°52.128 -999 -999 -999 -999 -999
2008-06-27 08:52:07 51°19.313 2°52.126 -999 -999 -999 -999 -999
2008-06-27 08:52:12 51°19.312 2°52.123 -999 -999 -999 -999 -999
2008-06-27 08:52:17 51°19.311 2°52.12 -999 -999 -999 -999 -999
2008-06-27 08:52:22 51°19.309 2°52.117 -999 -999 -999 -999 -999
2008-06-27 08:52:27 51°19.307 2°52.114 -999 -999 -999 -999 -999
2008-06-27 08:52:32 51°19.306 2°52.111 -999 -999 -999 -999 -999
2008-06-27 08:52:37 51°19.304 2°52.109 -999 -999 -999 -999 -999
2008-06-27 08:52:42 51°19.302 2°52.106 -999 -999 -999 -999 -999
2008-06-27 08:52:47 51°19.301 2°52.103 -999 -999 -999 -999 -999
2008-06-27 08:52:52 51°19.299 2°52.101 -999 -999 -999 -999 -999
2008-06-27 08:52:57 51°19.297 2°52.098 -999 -999 -999 -999 -999
2008-06-27 08:53:02 51°19.296 2°52.095 -999 -999 -999 -999 -999
2008-06-27 08:53:07 51°19.295 2°52.092 -999 -999 -999 -999 -999
2008-06-27 08:53:12 51°19.293 2°52.089 -999 -999 -999 -999 -999
2008-06-27 08:53:17 51°19.292 2°52.086 -999 -999 -999 -999 -999
2008-06-27 08:53:22 51°19.291 2°52.083 -999 -999 -999 -999 -999
2008-06-27 08:53:27 51°19.289 2°52.08 -999 -999 -999 -999 -999
2008-06-27 08:53:32 51°19.288 2°52.077 -999 -999 -999 -999 -999
2008-06-27 08:53:38 51°19.287 2°52.073 -999 -999 -999 -999 -999
2008-06-27 08:53:42 51°19.286 2°52.071 -999 -999 -999 -999 -999
2008-06-27 08:53:47 51°19.285 2°52.068 -999 -999 -999 -999 -999
2008-06-27 08:53:52 51°19.285 2°52.066 -999 -999 -999 -999 -999
2008-06-27 08:53:57 51°19.284 2°52.064 -999 -999 -999 -999 -999
2008-06-27 08:54:02 51°19.283 2°52.061 -999 -999 -999 -999 -999
2008-06-27 08:54:07 51°19.283 2°52.059 -999 -999 -999 -999 -999
2008-06-27 08:54:12 51°19.282 2°52.058 -999 -999 -999 -999 -999
2008-06-27 08:54:17 51°19.282 2°52.056 -999 -999 -999 -999 -999
2008-06-27 08:54:23 51°19.281 2°52.054 -999 -999 -999 -999 -999
2008-06-27 08:54:27 51°19.281 2°52.053 -999 -999 -999 -999 -999
2008-06-27 08:54:32 51°19.281 2°52.051 -999 -999 -999 -999 -999
2008-06-27 08:54:37 51°19.28 2°52.05 -999 -999 -999 -999 -999
2008-06-27 08:54:42 51°19.28 2°52.049 -999 -999 -999 -999 -999
2008-06-27 08:54:47 51°19.28 2°52.048 -999 -999 -999 -999 -999
2008-06-27 08:54:52 51°19.279 2°52.047 -999 -999 -999 -999 -999
2008-06-27 08:54:57 51°19.279 2°52.046 -999 -999 -999 -999 -999
2008-06-27 08:55:02 51°19.278 2°52.044 -999 -999 -999 -999 -999
2008-06-27 08:55:07 51°19.278 2°52.044 -999 -999 -999 -999 -999
2008-06-27 08:55:12 51°19.278 2°52.043 -999 -999 -999 -999 -999
2008-06-27 08:55:17 51°19.278 2°52.042 -999 -999 -999 -999 -999
2008-06-27 08:55:22 51°19.277 2°52.042 -999 -999 -999 -999 -999
2008-06-27 08:55:27 51°19.277 2°52.041 -999 -999 -999 -999 -999
2008-06-27 08:55:32 51°19.276 2°52.04 -999 -999 -999 -999 -999
2008-06-27 08:55:37 51°19.276 2°52.04 -999 -999 -999 -999 -999
2008-06-27 08:55:42 51°19.276 2°52.039 -999 -999 -999 -999 -999
2008-06-27 08:55:47 51°19.275 2°52.039 -999 -999 -999 -999 -999
2008-06-27 08:55:52 51°19.275 2°52.039 -999 -999 -999 -999 -999
2008-06-27 08:55:57 51°19.275 2°52.038 -999 -999 -999 -999 -999
2008-06-27 08:56:02 51°19.275 2°52.038 -999 -999 -999 -999 -999
2008-06-27 08:56:07 51°19.274 2°52.038 -999 -999 -999 -999 -999
2008-06-27 08:56:12 51°19.274 2°52.038 -999 -999 -999 -999 -999
2008-06-27 08:56:17 51°19.274 2°52.038 -999 -999 -999 -999 -999
2008-06-27 08:56:23 51°19.273 2°52.038 -999 -999 -999 -999 -999
2008-06-27 08:56:27 51°19.273 2°52.038 -999 -999 -999 -999 -999
2008-06-27 08:56:32 51°19.273 2°52.038 -999 -999 -999 -999 -999
2008-06-27 08:56:37 51°19.273 2°52.038 -999 -999 -999 -999 -999
2008-06-27 08:56:43 51°19.272 2°52.039 -999 -999 -999 -999 -999
2008-06-27 08:56:47 51°19.272 2°52.039 -999 -999 -999 -999 -999
2008-06-27 08:56:52 51°19.272 2°52.039 -999 -999 -999 -999 -999
2008-06-27 08:56:57 51°19.272 2°52.04 -999 -999 -999 -999 -999
2008-06-27 08:57:03 51°19.271 2°52.04 -999 -999 -999 -999 -999
2008-06-27 08:57:07 51°19.271 2°52.041 -999 -999 -999 -999 -999
2008-06-27 08:57:12 51°19.271 2°52.041 -999 -999 -999 -999 -999
2008-06-27 08:57:17 51°19.27 2°52.042 -999 -999 -999 -999 -999
2008-06-27 08:57:22 51°19.27 2°52.043 -999 -999 -999 -999 -999
2008-06-27 08:57:27 51°19.27 2°52.043 -999 -999 -999 -999 -999
2008-06-27 08:57:32 51°19.27 2°52.044 -999 -999 -999 -999 -999
2008-06-27 08:57:37 51°19.269 2°52.044 -999 -999 -999 -999 -999
2008-06-27 08:57:42 51°19.269 2°52.045 -999 -999 -999 -999 -999
2008-06-27 08:57:47 51°19.269 2°52.046 -999 -999 -999 -999 -999
2008-06-27 08:57:52 51°19.269 2°52.047 -999 -999 -999 -999 -999
2008-06-27 08:57:57 51°19.268 2°52.048 -999 -999 -999 -999 -999
2008-06-27 08:58:02 51°19.268 2°52.049 -999 -999 -999 -999 -999
2008-06-27 08:58:07 51°19.268 2°52.05 -999 -999 -999 -999 -999
2008-06-27 08:58:12 51°19.267 2°52.051 -999 -999 -999 -999 -999
2008-06-27 08:58:17 51°19.267 2°52.052 -999 -999 -999 -999 -999
2008-06-27 08:58:22 51°19.267 2°52.052 -999 -999 -999 -999 -999
2008-06-27 08:58:27 51°19.267 2°52.054 -999 -999 -999 -999 -999
2008-06-27 08:58:32 51°19.266 2°52.055 -999 -999 -999 -999 -999
2008-06-27 08:58:37 51°19.266 2°52.056 -999 -999 -999 -999 -999
2008-06-27 08:58:43 51°19.266 2°52.057 -999 -999 -999 -999 -999
2008-06-27 08:58:47 51°19.265 2°52.058 -999 -999 -999 -999 -999
2008-06-27 08:58:52 51°19.265 2°52.06 -999 -999 -999 -999 -999
2008-06-27 08:58:57 51°19.265 2°52.061 -999 -999 -999 -999 -999
2008-06-27 08:59:03 51°19.264 2°52.063 -999 -999 -999 -999 -999
2008-06-27 08:59:07 51°19.264 2°52.064 -999 -999 -999 -999 -999
2008-06-27 08:59:12 51°19.264 2°52.066 -999 -999 -999 -999 -999
2008-06-27 08:59:17 51°19.264 2°52.067 -999 -999 -999 -999 -999
2008-06-27 08:59:22 51°19.263 2°52.068 -999 -999 -999 -999 -999
2008-06-27 08:59:27 51°19.263 2°52.07 -999 -999 -999 -999 -999
2008-06-27 08:59:32 51°19.263 2°52.071 -999 -999 -999 -999 -999
2008-06-27 08:59:37 51°19.262 2°52.073 -999 -999 -999 -999 -999
2008-06-27 08:59:42 51°19.262 2°52.074 -999 -999 -999 -999 -999
2008-06-27 08:59:47 51°19.262 2°52.076 -999 -999 -999 -999 -999
2008-06-27 08:59:52 51°19.262 2°52.077 -999 -999 -999 -999 -999
2008-06-27 08:59:57 51°19.261 2°52.079 -999 -999 -999 -999 -999
2008-06-27 09:00:02 51°19.261 2°52.08 -999 -999 -999 -999 -999
2008-06-27 09:00:07 51°19.261 2°52.082 -999 -999 -999 -999 -999
2008-06-27 09:00:12 51°19.26 2°52.084 -999 -999 -999 -999 -999
2008-06-27 09:00:17 51°19.26 2°52.085 -999 -999 -999 -999 -999
2008-06-27 09:00:22 51°19.26 2°52.086 -999 -999 -999 -999 -999
2008-06-27 09:00:27 51°19.26 2°52.088 -999 -999 -999 -999 -999
2008-06-27 09:00:32 51°19.26 2°52.09 -999 -999 -999 -999 -999
2008-06-27 09:00:37 51°19.259 2°52.091 -999 -999 -999 -999 -999
2008-06-27 09:00:43 51°19.259 2°52.093 -999 -999 -999 -999 -999
2008-06-27 09:00:47 51°19.259 2°52.095 -999 -999 -999 -999 -999
2008-06-27 09:00:52 51°19.258 2°52.096 -999 -999 -999 -999 -999
2008-06-27 09:00:58 51°19.258 2°52.098 -999 -999 -999 -999 -999
2008-06-27 09:01:03 51°19.258 2°52.099 -999 -999 -999 -999 -999
2008-06-27 09:01:07 51°19.257 2°52.101 -999 -999 -999 -999 -999
2008-06-27 09:01:12 51°19.257 2°52.102 -999 -999 -999 -999 -999
2008-06-27 09:01:17 51°19.257 2°52.104 -999 -999 -999 -999 -999
2008-06-27 09:01:22 51°19.256 2°52.106 -999 -999 -999 -999 -999
2008-06-27 09:01:27 51°19.256 2°52.107 -999 -999 -999 -999 -999
2008-06-27 09:01:32 51°19.255 2°52.108 -999 -999 -999 -999 -999
2008-06-27 09:01:37 51°19.254 2°52.11 -999 -999 -999 -999 -999
2008-06-27 09:01:42 51°19.254 2°52.112 -999 -999 -999 -999 -999
2008-06-27 09:01:47 51°19.253 2°52.113 -999 -999 -999 -999 -999
2008-06-27 09:01:52 51°19.253 2°52.115 -999 -999 -999 -999 -999
2008-06-27 09:01:57 51°19.252 2°52.116 -999 -999 -999 -999 -999
2008-06-27 09:02:02 51°19.251 2°52.118 -999 -999 -999 -999 -999
2008-06-27 09:02:07 51°19.251 2°52.119 -999 -999 -999 -999 -999
2008-06-27 09:02:12 51°19.25 2°52.121 -999 -999 -999 -999 -999
2008-06-27 09:02:17 51°19.249 2°52.122 -999 -999 -999 -999 -999
2008-06-27 09:02:22 51°19.249 2°52.124 -999 -999 -999 -999 -999
2008-06-27 09:02:27 51°19.248 2°52.125 -999 -999 -999 -999 -999
2008-06-27 09:02:32 51°19.247 2°52.126 -999 -999 -999 -999 -999
2008-06-27 09:02:37 51°19.247 2°52.128 -999 -999 -999 -999 -999
2008-06-27 09:02:42 51°19.246 2°52.129 -999 -999 -999 -999 -999
2008-06-27 09:02:47 51°19.245 2°52.129 -999 -999 -999 -999 -999
2008-06-27 09:02:52 51°19.245 2°52.131 -999 -999 -999 -999 -999
2008-06-27 09:02:58 51°19.244 2°52.132 -999 -999 -999 -999 -999
2008-06-27 09:03:03 51°19.243 2°52.133 -999 -999 -999 -999 -999
2008-06-27 09:03:07 51°19.242 2°52.134 -999 -999 -999 -999 -999
2008-06-27 09:03:12 51°19.242 2°52.134 -999 -999 -999 -999 -999
2008-06-27 09:03:17 51°19.241 2°52.135 -999 -999 -999 -999 -999
2008-06-27 09:03:23 51°19.24 2°52.136 -999 -999 -999 -999 -999
2008-06-27 09:03:27 51°19.239 2°52.137 -999 -999 -999 -999 -999
2008-06-27 09:03:32 51°19.239 2°52.137 -999 -999 -999 -999 -999
2008-06-27 09:03:37 51°19.238 2°52.138 -999 -999 -999 -999 -999
2008-06-27 09:03:42 51°19.237 2°52.139 -999 -999 -999 -999 -999
2008-06-27 09:03:47 51°19.236 2°52.14 -999 -999 -999 -999 -999
2008-06-27 09:03:52 51°19.235 2°52.141 -999 -999 -999 -999 -999
2008-06-27 09:03:57 51°19.235 2°52.141 -999 -999 -999 -999 -999
2008-06-27 09:04:02 51°19.234 2°52.142 -999 -999 -999 -999 -999
2008-06-27 09:04:07 51°19.233 2°52.143 -999 -999 -999 -999 -999
2008-06-27 09:04:12 51°19.233 2°52.144 -999 -999 -999 -999 -999
2008-06-27 09:04:17 51°19.232 2°52.144 -999 -999 -999 -999 -999
2008-06-27 09:04:22 51°19.231 2°52.145 -999 -999 -999 -999 -999
2008-06-27 09:04:27 51°19.23 2°52.146 -999 -999 -999 -999 -999
2008-06-27 09:04:32 51°19.23 2°52.147 -999 -999 -999 -999 -999
2008-06-27 09:04:37 51°19.229 2°52.147 -999 -999 -999 -999 -999
2008-06-27 09:04:42 51°19.228 2°52.148 -999 -999 -999 -999 -999
2008-06-27 09:04:47 51°19.227 2°52.148 -999 -999 -999 -999 -999
2008-06-27 09:04:52 51°19.227 2°52.149 -999 -999 -999 -999 -999
2008-06-27 09:04:57 51°19.226 2°52.149 -999 -999 -999 -999 -999
2008-06-27 09:05:03 51°19.225 2°52.15 -999 -999 -999 -999 -999
2008-06-27 09:05:07 51°19.225 2°52.151 -999 -999 -999 -999 -999
2008-06-27 09:05:12 51°19.224 2°52.152 -999 -999 -999 -999 -999
2008-06-27 09:05:18 51°19.223 2°52.153 -999 -999 -999 -999 -999
2008-06-27 09:05:23 51°19.222 2°52.153 -999 -999 -999 -999 -999
2008-06-27 09:05:27 51°19.222 2°52.154 -999 -999 -999 -999 -999
2008-06-27 09:05:32 51°19.221 2°52.155 -999 -999 -999 -999 -999
2008-06-27 09:05:37 51°19.221 2°52.155 -999 -999 -999 -999 -999
2008-06-27 09:05:42 51°19.22 2°52.156 -999 -999 -999 -999 -999
2008-06-27 09:05:47 51°19.219 2°52.156 -999 -999 -999 -999 -999
2008-06-27 09:05:52 51°19.218 2°52.157 -999 -999 -999 -999 -999
2008-06-27 09:05:57 51°19.218 2°52.157 -999 -999 -999 -999 -999
2008-06-27 09:06:02 51°19.217 2°52.158 -999 -999 -999 -999 -999
2008-06-27 09:06:07 51°19.216 2°52.158 -999 -999 -999 -999 -999
2008-06-27 09:06:12 51°19.216 2°52.158 -999 -999 -999 -999 -999
2008-06-27 09:06:17 51°19.215 2°52.158 -999 -999 -999 -999 -999
2008-06-27 09:06:22 51°19.214 2°52.158 -999 -999 -999 -999 -999
2008-06-27 09:06:27 51°19.212 2°52.157 -999 -999 -999 -999 -999
2008-06-27 09:06:32 51°19.211 2°52.155 -999 -999 -999 -999 -999
2008-06-27 09:06:37 51°19.209 2°52.153 -999 -999 -999 -999 -999
2008-06-27 09:06:42 51°19.207 2°52.151 -999 -999 -999 -999 -999
2008-06-27 09:06:47 51°19.205 2°52.149 -999 -999 -999 -999 -999
2008-06-27 09:06:52 51°19.203 2°52.147 -999 -999 -999 -999 -999
2008-06-27 09:06:57 51°19.2 2°52.145 -999 -999 -999 -999 -999
2008-06-27 09:07:02 51°19.196 2°52.143 -999 -999 -999 -999 -999
2008-06-27 09:07:07 51°19.192 2°52.142 -999 -999 -999 -999 -999
2008-06-27 09:07:12 51°19.188 2°52.142 -999 -999 -999 -999 -999
2008-06-27 09:07:18 51°19.182 2°52.143 -999 -999 -999 -999 -999